Weather in Vodice

Croatia     43°45′24″N   15°46′40″E
temp.,
°C
wind,
m/s
gust,
m/s
humid.,
%
clouds,
%
prec.,
mm/h
press.,
hPa
HPBL,
m
26 february, fri
fri2601:00+13n11700 0.0 103023
04:00+13nne12730 0.0 102923
07:00+13n22740 0.0 102824
10:00+15nw11650 0.0 102889
13:00+16wnw44580 0.0 1027190
16:00+15wnw45660 0.0 1025146
19:00+13nw23700 0.0 102438
22:00+13nw33650 0.0 102551
27 february, sat
sat2701:00+12nnw33670 0.0 102469
04:00+12nnw33690 0.0 1023109
07:00+12nne34690 0.0 1024137
10:00+15nne812660 0.0 1025427
13:00+16nne1014570 0.0 1025489
16:00+14nne1115550 0.0 1025546
19:00+11nne1216550 0.0 1026548
22:00+10nne1216580 0.0 1028521
28 february, sun
sun2801:00+9nne1216600 0.0 1028579
04:00+9ne1014600 0.0 1028533
07:00+8ne1014630 0.0 1029512
10:00+10ne810530 0.0 1029553
13:00+13ne45440 0.0 1029874
16:00+13nne78500 0.0 1028694
19:00+9nne912590 0.0 1030361
22:00+8ne810640 0.0 1030277
1 march, mon
mon101:00+7nne78670 0.0 1031239
04:00+6nne78680 0.0 1030267
07:00+6nne68670 0.0 1030251
10:00+9nne56540 0.0 1031426
13:00+12wnw44480 0.0 1030473
16:00+12wnw56550 0.0 1030436
19:00+11nnw69590 0.0 1031342
22:00+9nne69610 0.0 1032232
2 march, tue
tue201:00+8ne78630 0.0 1033203
04:00+7ne68630 0.0 1033203
07:00+7ne67620 0.0 1033204
10:00+11ne55520 0.0 1034364
13:00+13s11420 0.0 1034334
16:00+12w34550 0.0 1034359
19:00+11nw23590 0.0 1035288
22:00+10nne22660 0.0 1036143